Weather History for Fryeburg, ME

Change the Weather History Date:

Tuesday, January 22, 2013

  Actual Average Record
Temperature  
Mean Temperature 11 °F -  
Max Temperature 19 °F 25 °F 48 °F (1997)
Min Temperature 1 °F 2 °F -27 °F (2005)
Degree Days  
Heating Degree Days 54    
Moisture  
Dew Point 0 °F    
Average Humidity 59    
Maximum Humidity 87    
Minimum Humidity 37    
Precipitation  
Precipitation 0.00 in - - ()
Sea Level Pressure  
Sea Level Pressure 29.87 in    
Wind  
Wind Speed 5 mph (NNW)    
Max Wind Speed 13 mph    
Max Gust Speed 25 mph    
Visibility 10 miles    
Events Snow    
Averages and records for this station are not official NWS values.
T = Trace of Precipitation, MM = Missing Value Source: NWS Daily Summary

Daily Weather History Graph

Daily Weather History Graph

Search for Another Location

Airport:

Trip Planner

Search our weather history database for the weather conditions in past years. The results will help you decide how hot, cold, wet, or windy it might be!

Date:

Astronomy

Jan. 22, 2013 Rise Set
Actual Time 7:10 AM EST 4:40 PM EST
Civil Twilight 6:39 AM EST 5:12 PM EST
Nautical Twilight 6:03 AM EST 5:47 PM EST
Astronomical Twilight 5:29 AM EST 6:21 PM EST
Moon 12:59 PM EST (1/22) 3:30 AM EST (1/22)
Length of Visible Light 10h 33m
Length of Day
9h 30m
Waxing Gibbous, 82% of the Moon is Illuminated
Jan 22
Waxing Gibbous
Jan 26
Full
Feb 3
Last Quarter
Feb 10
New
Feb 17
First Quarter

Hourly Weather History & Observations

Time (EST) Temp. Windchill Dew Point Humidity Pressure Visibility Wind Dir Wind Speed Gust Speed Precip Events Conditions
12:54 AM 16.0 °F 8.8 °F 10.0 °F 77% 29.81 in 10.0 mi North 4.6 mph - N/A   Overcast
1:19 AM 15.8 °F 8.6 °F 10.4 °F 79% 29.78 in 10.0 mi North 4.6 mph - N/A   Overcast
1:54 AM 16.0 °F 8.8 °F 7.0 °F 68% 29.81 in 10.0 mi NNE 4.6 mph - N/A   Overcast
2:54 AM 14.0 °F 8.2 °F 3.0 °F 62% 29.81 in 10.0 mi NNE 3.5 mph - N/A   Overcast
3:54 AM 12.9 °F 5.2 °F 3.0 °F 65% 29.80 in 10.0 mi NNW 4.6 mph - N/A   Overcast
4:54 AM 12.9 °F 5.2 °F 6.1 °F 74% 29.80 in 7.0 mi North 4.6 mph - N/A   Overcast
5:54 AM 12.9 °F 6.9 °F 8.1 °F 81% 29.80 in 3.0 mi NNW 3.5 mph - 0.00 in Snow Light Snow
6:54 AM 10.9 °F 4.7 °F 7.0 °F 84% 29.80 in 10.0 mi NNW 3.5 mph - 0.00 in   Overcast
7:54 AM 7.0 °F 0.1 °F 3.9 °F 87% 29.81 in 10.0 mi South 3.5 mph - N/A   Partly Cloudy
8:54 AM 12.0 °F 4.1 °F 5.0 °F 73% 29.82 in 10.0 mi ESE 4.6 mph - N/A   Partly Cloudy
9:54 AM 15.1 °F - 5.0 °F 64% 29.82 in 10.0 mi Calm Calm - N/A   Clear
10:54 AM 17.1 °F 11.7 °F 5.0 °F 59% 29.81 in 10.0 mi East 3.5 mph - N/A   Clear
11:54 AM 19.0 °F - 3.0 °F 50% 29.79 in 10.0 mi Calm Calm - 0.00 in   Scattered Clouds
12:54 PM 19.9 °F 7.3 °F -2.9 °F 37% 29.79 in 10.0 mi NW 12.7 mph 25.3 mph N/A   Partly Cloudy
1:54 PM 18.0 °F 8.7 °F -4.0 °F 38% 29.83 in 10.0 mi NW 6.9 mph 17.3 mph N/A   Partly Cloudy
2:54 PM 17.1 °F 5.8 °F -5.1 °F 37% 29.85 in 10.0 mi WNW 9.2 mph 19.6 mph N/A   Clear
3:54 PM 15.1 °F 5.2 °F -2.0 °F 47% 29.88 in 10.0 mi NW 6.9 mph 17.3 mph N/A   Clear
4:54 PM 14.0 °F 2.9 °F -2.0 °F 49% 29.92 in 10.0 mi NW 8.1 mph - N/A   Mostly Cloudy
5:54 PM 12.9 °F -0.2 °F -2.0 °F 51% 29.96 in 10.0 mi NW 10.4 mph 17.3 mph N/A   Overcast
6:54 PM 10.0 °F 0.4 °F -8.0 °F 44% 29.99 in 10.0 mi WNW 5.8 mph - 0.00 in   Mostly Cloudy
7:54 PM 9.0 °F -0.9 °F -9.0 °F 44% 30.00 in 10.0 mi WNW 5.8 mph - N/A   Clear
8:54 PM 7.0 °F -1.7 °F -9.0 °F 48% 30.00 in 10.0 mi NW 4.6 mph - N/A   Clear
9:54 PM 7.0 °F -3.3 °F -9.0 °F 48% 30.01 in 10.0 mi NW 5.8 mph - N/A   Overcast
10:54 PM 3.9 °F - -11.0 °F 50% 30.03 in 10.0 mi Calm Calm - N/A   Partly Cloudy
11:54 PM 1.9 °F -7.6 °F -11.9 °F 52% 30.03 in 10.0 mi WNW 4.6 mph - N/A   Clear